English version Home page |
Updated on May 7, 2015 |
|
軌道要素Epoch 2012 Dec. 19.0 TT = JDT 2456280.5 T 2012 Dec. 4.75253 TT MPC q 3.6070795 (2000.0) P Q z +0.0009517 Peri. 351.43729 +0.01708603 -0.42161714 +/-0.0000016 Node 267.37036 -0.85518028 -0.47596940 e 0.9965672 Incl. 114.82851 -0.51804900 +0.77181094 From 98 observations 2012 July 16-2013 Aug. 1, mean residual 0".4.
|
光度変化m1 = 11.0 + 5 logΔ + 10.0 log r
|
軌道要素はM.P.E.C. 2013-Q14に掲載されたものです。
|